| time (UTC) | temp F | wind direction | speed MPH | gust MPH | rain 1hr in | rain 24hr in | rain mn in | humidity % | barometer mb |
| 20260504150659 | 64 | 177 | 4.0 | 5.0 | 0.00 | 0.00 | 0.00 | 41 | 1011.9 |
| 20260504150156 | 64 | 277 | 3.0 | 6.0 | 0.00 | 0.00 | 0.00 | 45 | 1012.2 |
| 20260504141125 | 61 | 236 | 4.0 | 5.0 | 0.00 | 0.00 | 0.00 | 43 | 1012.3 |
| 20260504140622 | 60 | 90 | 1.0 | 9.0 | 0.00 | 0.00 | 0.00 | 45 | 1012.4 |
| 20260504140117 | 60 | 66 | 1.0 | 4.0 | 0.00 | 0.00 | 0.00 | 45 | 1012.4 |
| 20260504130545 | 58 | 185 | 2.0 | 2.0 | 0.00 | 0.00 | 0.00 | 52 | 1012.7 |
| 20260504110432 | 35 | 95 | 2.0 | 3.0 | 0.00 | 0.00 | 0.00 | 99 | 1013.3 |
| 20260504100355 | 33 | 151 | 0.0 | 2.0 | 0.00 | 0.00 | 0.00 | 99 | 1012.9 |
| 20260504081748 | 34 | 105 | 1.0 | 2.0 | 0.00 | 0.00 | 0.00 | 98 | 1013.4 |
| 20260504081245 | 34 | 103 | 1.0 | 1.0 | 0.00 | 0.00 | 0.00 | 97 | 1013.1 |
| 20260504080741 | 35 | 123 | 0.0 | 2.0 | 0.00 | 0.00 | 0.00 | 97 | 1013.2 |
| 20260504080238 | 35 | 109 | 0.0 | 2.0 | 0.00 | 0.00 | 0.00 | 97 | 1013.0 |
| 20260504070205 | 35 | 106 | 0.0 | 1.0 | 0.00 | 0.00 | 0.00 | 96 | 1013.2 |
| 20260504060126 | 37 | 117 | 0.0 | 1.0 | 0.00 | 0.00 | 0.00 | 93 | 1013.1 |
| 20260504050554 | 40 | 90 | 0.0 | 1.0 | 0.00 | 0.00 | 0.00 | 88 | 1012.7 |
| 20260504045548 | 41 | 126 | 1.0 | 1.0 | 0.00 | 0.00 | 0.00 | 87 | 1012.9 |
| 20260504045043 | 41 | 114 | 0.0 | 0.0 | 0.00 | 0.00 | 0.00 | 87 | 1012.8 |
| 20260504044541 | 41 | 165 | 0.0 | 0.0 | 0.00 | 0.00 | 0.00 | 86 | 1013.0 |
| 20260504044038 | 42 | 157 | 0.0 | 1.0 | 0.00 | 0.00 | 0.00 | 84 | 1013.0 |
| 20260504043535 | 42 | 162 | 0.0 | 2.0 | 0.00 | 0.00 | 0.00 | 81 | 1013.1 |
| 20260504043032 | 43 | 98 | 1.0 | 2.0 | 0.00 | 0.00 | 0.00 | 79 | 1012.9 |
| 20260504042529 | 43 | 180 | 0.0 | 2.0 | 0.00 | 0.00 | 0.00 | 78 | 1012.7 |
| 20260504042026 | 43 | 180 | 0.0 | 1.0 | 0.00 | 0.00 | 0.00 | 79 | 1012.7 |
| 20260504041522 | 43 | 187 | 0.0 | 1.0 | 0.00 | 0.00 | 0.00 | 79 | 1012.8 |
| 20260504041018 | 43 | 184 | 0.0 | 2.0 | 0.00 | 0.00 | 0.00 | 80 | 1012.7 |
| 20260504040516 | 43 | 190 | 2.0 | 2.0 | 0.00 | 0.00 | 0.00 | 79 | 1012.5 |
| 20260504040012 | 43 | 180 | 1.0 | 2.0 | 0.00 | 0.00 | 0.00 | 80 | 1012.6 |
| 20260504035509 | 43 | 175 | 0.0 | 2.0 | 0.00 | 0.00 | 0.00 | 78 | 1012.5 |
| 20260504035005 | 43 | 166 | 0.0 | 2.0 | 0.00 | 0.00 | 0.00 | 79 | 1012.6 |
| 20260504034503 | 43 | 186 | 0.0 | 2.0 | 0.00 | 0.00 | 0.00 | 79 | 1012.2 |
| 20260504034000 | 43 | 180 | 1.0 | 1.0 | 0.00 | 0.00 | 0.00 | 79 | 1012.3 |
| 20260504033458 | 43 | 180 | 0.0 | 0.0 | 0.00 | 0.00 | 0.00 | 80 | 1012.4 |
| 20260504032955 | 43 | 173 | 0.0 | 2.0 | 0.00 | 0.00 | 0.00 | 79 | 1012.2 |
| 20260504032452 | 44 | 165 | 0.0 | 0.0 | 0.00 | 0.00 | 0.00 | 78 | 1012.1 |
| 20260504031948 | 44 | 187 | 1.0 | 2.0 | 0.00 | 0.00 | 0.00 | 78 | 1012.3 |
| 20260504031445 | 44 | 180 | 0.0 | 2.0 | 0.00 | 0.00 | 0.00 | 78 | 1012.2 |
| 20260504030942 | 44 | 145 | 1.0 | 3.0 | 0.00 | 0.00 | 0.00 | 78 | 1012.2 |
| 20260504030439 | 44 | 163 | 3.0 | 3.0 | 0.00 | 0.00 | 0.00 | 76 | 1012.1 |
| 20260504025935 | 44 | 180 | 1.0 | 1.0 | 0.00 | 0.00 | 0.00 | 76 | 1012.1 |
| 20260504025432 | 45 | 180 | 0.0 | 2.0 | 0.00 | 0.00 | 0.00 | 78 | 1012.3 |
| 20260504024929 | 44 | 185 | 1.0 | 2.0 | 0.00 | 0.00 | 0.00 | 77 | 1012.1 |
| 20260504024426 | 45 | 187 | 0.0 | 3.0 | 0.00 | 0.00 | 0.00 | 78 | 1012.0 |
| 20260504023923 | 45 | 188 | 2.0 | 2.0 | 0.00 | 0.00 | 0.00 | 76 | 1012.2 |
| 20260504023419 | 45 | 184 | 2.0 | 2.0 | 0.00 | 0.00 | 0.00 | 77 | 1012.0 |
| 20260504022915 | 45 | 198 | 2.0 | 2.0 | 0.00 | 0.00 | 0.00 | 76 | 1012.2 |
| 20260504022412 | 45 | 195 | 2.0 | 2.0 | 0.00 | 0.00 | 0.00 | 76 | 1012.3 |
| 20260504021908 | 45 | 195 | 2.0 | 2.0 | 0.00 | 0.00 | 0.00 | 74 | 1012.2 |
| 20260504021406 | 46 | 185 | 2.0 | 2.0 | 0.00 | 0.00 | 0.00 | 74 | 1012.3 |
| 20260504020903 | 46 | 200 | 0.0 | 2.0 | 0.00 | 0.00 | 0.00 | 74 | 1012.1 |
| 20260504020359 | 46 | 194 | 0.0 | 2.0 | 0.00 | 0.00 | 0.00 | 73 | 1012.1 |
| 20260504015855 | 46 | 209 | 1.0 | 2.0 | 0.00 | 0.00 | 0.00 | 73 | 1012.2 |
| 20260504015352 | 46 | 203 | 0.0 | 2.0 | 0.00 | 0.00 | 0.00 | 75 | 1012.1 |
| 20260504014848 | 46 | 197 | 2.0 | 2.0 | 0.00 | 0.00 | 0.00 | 71 | 1012.1 |
| 20260504014344 | 47 | 194 | 0.0 | 3.0 | 0.00 | 0.00 | 0.00 | 74 | 1012.2 |
| 20260504013842 | 47 | 188 | 0.0 | 2.0 | 0.00 | 0.00 | 0.00 | 72 | 1012.1 |
| 20260504013339 | 47 | 172 | 0.0 | 1.0 | 0.00 | 0.00 | 0.00 | 70 | 1012.1 |
| 20260504012836 | 47 | 191 | 1.0 | 2.0 | 0.00 | 0.00 | 0.00 | 72 | 1012.0 |
| 20260504012334 | 47 | 213 | 0.0 | 3.0 | 0.00 | 0.00 | 0.00 | 70 | 1012.0 |
| 20260504011831 | 47 | 187 | 0.0 | 2.0 | 0.00 | 0.00 | 0.00 | 72 | 1012.0 |
| 20260504011327 | 48 | 184 | 2.0 | 2.0 | 0.00 | 0.00 | 0.00 | 69 | 1011.8 |
| 20260504010823 | 48 | 192 | 1.0 | 2.0 | 0.00 | 0.00 | 0.00 | 68 | 1011.9 |
| 20260504010319 | 48 | 175 | 0.0 | 1.0 | 0.00 | 0.00 | 0.00 | 69 | 1011.9 |
| 20260504005816 | 48 | 194 | 1.0 | 2.0 | 0.00 | 0.00 | 0.00 | 70 | 1011.6 |
| 20260504005313 | 48 | 188 | 0.0 | 2.0 | 0.00 | 0.00 | 0.00 | 68 | 1011.9 |
| 20260504004810 | 48 | 201 | 2.0 | 2.0 | 0.00 | 0.00 | 0.00 | 69 | 1011.7 |
| 20260504004308 | 48 | 184 | 2.0 | 2.0 | 0.00 | 0.00 | 0.00 | 67 | 1011.5 |
| 20260504003804 | 48 | 185 | 1.0 | 2.0 | 0.00 | 0.00 | 0.00 | 70 | 1011.4 |
| 20260504003301 | 49 | 174 | 0.0 | 2.0 | 0.00 | 0.00 | 0.00 | 68 | 1011.4 |
| 20260504002757 | 49 | 186 | 1.0 | 3.0 | 0.00 | 0.00 | 0.00 | 69 | 1011.5 |
| 20260504002254 | 50 | 194 | 0.0 | 2.0 | 0.00 | 0.00 | 0.00 | 67 | 1011.5 |
| 20260504001752 | 50 | 148 | 1.0 | 2.0 | 0.00 | 0.00 | 0.00 | 64 | 1011.2 |
| 20260504001249 | 51 | 160 | 0.0 | 2.0 | 0.00 | 0.00 | 0.00 | 65 | 1011.3 |
| 20260504000746 | 51 | 172 | 0.0 | 2.0 | 0.00 | 0.00 | 0.00 | 64 | 1011.2 |
| 20260504000243 | 52 | 206 | 0.0 | 2.0 | 0.00 | 0.00 | 0.00 | 61 | 1011.2 |
| 20260503235741 | 52 | 194 | 1.0 | 2.0 | 0.00 | 0.00 | 0.00 | 61 | 1011.2 |
| 20260503235238 | 53 | 173 | 1.0 | 3.0 | 0.00 | 0.00 | 0.00 | 58 | 1010.9 |
| 20260503234735 | 53 | 188 | 3.0 | 3.0 | 0.00 | 0.00 | 0.00 | 58 | 1011.0 |
| 20260503234233 | 54 | 160 | 0.0 | 2.0 | 0.00 | 0.00 | 0.00 | 56 | 1010.9 |
| 20260503233730 | 55 | 112 | 0.0 | 2.0 | 0.00 | 0.00 | 0.00 | 52 | 1010.9 |
| 20260503233226 | 56 | 144 | 0.0 | 2.0 | 0.00 | 0.00 | 0.00 | 46 | 1010.7 |
| 20260503232723 | 57 | 270 | 1.0 | 8.0 | 0.00 | 0.00 | 0.00 | 44 | 1010.8 |
| 20260503232220 | 56 | 140 | 0.0 | 2.0 | 0.00 | 0.00 | 0.00 | 47 | 1010.7 |
| 20260503231719 | 57 | 279 | 0.0 | 0.0 | 0.00 | 0.00 | 0.00 | 44 | 1010.9 |
| 20260503231215 | 58 | 135 | 0.0 | 5.0 | 0.00 | 0.00 | 0.00 | 40 | 1010.5 |
| 20260503230711 | 58 | 98 | 1.0 | 2.0 | 0.00 | 0.00 | 0.00 | 43 | 1010.9 |
| 20260503230208 | 59 | 200 | 6.0 | 11.0 | 0.00 | 0.00 | 0.00 | 39 | 1010.7 |
| 20260503225705 | 58 | 174 | 1.0 | 3.0 | 0.00 | 0.00 | 0.00 | 40 | 1010.6 |
| 20260503225200 | 59 | 195 | 1.0 | 2.0 | 0.00 | 0.00 | 0.00 | 43 | 1010.5 |
| 20260503224658 | 59 | 103 | 2.0 | 4.0 | 0.00 | 0.00 | 0.00 | 37 | 1010.5 |
| 20260503224156 | 59 | 187 | 4.0 | 4.0 | 0.00 | 0.00 | 0.00 | 39 | 1010.5 |
| 20260503223653 | 60 | 90 | 0.0 | 3.0 | 0.00 | 0.00 | 0.00 | 37 | 1010.3 |
| 20260503223149 | 60 | 270 | 0.0 | 4.0 | 0.00 | 0.00 | 0.00 | 38 | 1010.4 |
| 20260503222647 | 60 | 209 | 1.0 | 7.0 | 0.00 | 0.00 | 0.00 | 37 | 1010.6 |
| 20260503222144 | 59 | 177 | 0.0 | 3.0 | 0.00 | 0.00 | 0.00 | 36 | 1010.5 |
| 20260503221643 | 60 | 220 | 9.0 | 9.0 | 0.00 | 0.00 | 0.00 | 37 | 1010.3 |
| 20260503221139 | 60 | 305 | 2.0 | 4.0 | 0.00 | 0.00 | 0.00 | 39 | 1010.5 |
| 20260503220636 | 61 | 212 | 2.0 | 7.0 | 0.00 | 0.00 | 0.00 | 35 | 1010.4 |
| 20260503220133 | 61 | 347 | 6.0 | 6.0 | 0.00 | 0.00 | 0.00 | 36 | 1010.5 |
| 20260503215630 | 61 | 123 | 0.0 | 2.0 | 0.00 | 0.00 | 0.00 | 36 | 1010.4 |
| 20260503215126 | 60 | 156 | 2.0 | 7.0 | 0.00 | 0.00 | 0.00 | 34 | 1010.6 |
| 20260503214625 | 62 | 47 | 3.0 | 3.0 | 0.00 | 0.00 | 0.00 | 33 | 1010.3 |
| 20260503214121 | 62 | 220 | 3.0 | 9.0 | 0.00 | 0.00 | 0.00 | 34 | 1010.7 |
| 20260503213620 | 61 | 90 | 1.0 | 7.0 | 0.00 | 0.00 | 0.00 | 33 | 1010.3 |
| 20260503213116 | 60 | 15 | 0.0 | 10.0 | 0.00 | 0.00 | 0.00 | 35 | 1010.2 |
| 20260503212614 | 61 | 323 | 2.0 | 4.0 | 0.00 | 0.00 | 0.00 | 37 | 1010.5 |
| 20260503212111 | 61 | 95 | 4.0 | 7.0 | 0.00 | 0.00 | 0.00 | 35 | 1010.2 |
| 20260503211609 | 61 | 153 | 3.0 | 14.0 | 0.00 | 0.00 | 0.00 | 33 | 1010.2 |
| 20260503211104 | 61 | 172 | 3.0 | 7.0 | 0.00 | 0.00 | 0.00 | 32 | 1010.3 |
| 20260503210601 | 62 | 221 | 5.0 | 10.0 | 0.00 | 0.00 | 0.00 | 32 | 1010.2 |
| 20260503210056 | 62 | 248 | 0.0 | 10.0 | 0.00 | 0.00 | 0.00 | 31 | 1010.3 |
| 20260503205553 | 62 | 122 | 3.0 | 5.0 | 0.00 | 0.00 | 0.00 | 34 | 1010.5 |
| 20260503205049 | 61 | 180 | 0.0 | 3.0 | 0.00 | 0.00 | 0.00 | 34 | 1010.4 |
| 20260503204547 | 60 | 99 | 0.0 | 10.0 | 0.00 | 0.00 | 0.00 | 35 | 1010.4 |
| 20260503204044 | 61 | 206 | 3.0 | 11.0 | 0.00 | 0.00 | 0.00 | 33 | 1010.3 |
| 20260503203541 | 61 | 184 | 4.0 | 8.0 | 0.00 | 0.00 | 0.00 | 33 | 1010.5 |
| 20260503203038 | 62 | 90 | 0.0 | 8.0 | 0.00 | 0.00 | 0.00 | 36 | 1010.3 |
| 20260503202536 | 60 | 225 | 2.0 | 4.0 | 0.00 | 0.00 | 0.00 | 33 | 1010.5 |
| 20260503202034 | 60 | 300 | 1.0 | 9.0 | 0.00 | 0.00 | 0.00 | 33 | 1010.7 |
| 20260503201532 | 61 | 109 | 1.0 | 8.0 | 0.00 | 0.00 | 0.00 | 32 | 1010.5 |
| 20260503201028 | 61 | 201 | 4.0 | 7.0 | 0.00 | 0.00 | 0.00 | 34 | 1010.7 |
| 20260503200524 | 61 | 206 | 4.0 | 11.0 | 0.00 | 0.00 | 0.00 | 32 | 1010.8 |
| 20260503200021 | 60 | 282 | 4.0 | 12.0 | 0.00 | 0.00 | 0.00 | 34 | 1010.9 |
| 20260503195519 | 60 | 153 | 3.0 | 4.0 | 0.00 | 0.00 | 0.00 | 33 | 1010.9 |
| 20260503195015 | 60 | 245 | 2.0 | 6.0 | 0.00 | 0.00 | 0.00 | 37 | 1010.8 |
| 20260503194513 | 60 | 205 | 9.0 | 16.0 | 0.00 | 0.00 | 0.00 | 34 | 1011.0 |
| 20260503194012 | 59 | 185 | 1.0 | 6.0 | 0.00 | 0.00 | 0.00 | 35 | 1011.0 |
| 20260503193509 | 59 | 97 | 4.0 | 6.0 | 0.00 | 0.00 | 0.00 | 34 | 1011.1 |
| 20260503193004 | 59 | 172 | 6.0 | 13.0 | 0.00 | 0.00 | 0.00 | 34 | 1011.1 |
| 20260503192501 | 58 | 1 | 5.0 | 9.0 | 0.00 | 0.00 | 0.00 | 36 | 1011.3 |
| 20260503191956 | 57 | 32 | 2.0 | 17.0 | 0.00 | 0.00 | 0.00 | 35 | 1011.4 |
| 20260503191454 | 59 | 187 | 6.0 | 7.0 | 0.00 | 0.00 | 0.00 | 33 | 1011.7 |
| 20260503190950 | 59 | 190 | 5.0 | 5.0 | 0.00 | 0.00 | 0.00 | 35 | 1011.6 |
| 20260503190447 | 57 | 195 | 3.0 | 14.0 | 0.00 | 0.00 | 0.00 | 36 | 1011.4 |
| 20260503185944 | 61 | 226 | 5.0 | 9.0 | 0.00 | 0.00 | 0.00 | 35 | 1011.5 |
| 20260503185441 | 59 | 184 | 2.0 | 6.0 | 0.00 | 0.00 | 0.00 | 35 | 1011.8 |
| 20260503184940 | 57 | 63 | 1.0 | 4.0 | 0.00 | 0.00 | 0.00 | 42 | 1011.5 |
| 20260503184437 | 56 | 128 | 3.0 | 8.0 | 0.00 | 0.00 | 0.00 | 36 | 1011.8 |
| 20260503183933 | 57 | 19 | 2.0 | 8.0 | 0.00 | 0.00 | 0.00 | 37 | 1011.8 |
| 20260503183430 | 55 | 153 | 3.0 | 5.0 | 0.00 | 0.00 | 0.00 | 37 | 1011.9 |
| 20260503182927 | 55 | 156 | 12.0 | 13.0 | 0.00 | 0.00 | 0.00 | 37 | 1012.0 |
| 20260503182426 | 57 | 139 | 0.0 | 4.0 | 0.00 | 0.00 | 0.00 | 37 | 1012.0 |
| 20260503181923 | 55 | 108 | 4.0 | 6.0 | 0.00 | 0.00 | 0.00 | 36 | 1012.0 |
| 20260503181420 | 55 | 133 | 5.0 | 15.0 | 0.00 | 0.00 | 0.00 | 36 | 1011.7 |
| 20260503180916 | 56 | 56 | 5.0 | 14.0 | 0.00 | 0.00 | 0.00 | 34 | 1011.8 |
| 20260503180414 | 58 | 346 | 2.0 | 8.0 | 0.00 | 0.00 | 0.00 | 35 | 1011.9 |
| 20260503175910 | 58 | 63 | 0.0 | 5.0 | 0.00 | 0.00 | 0.00 | 42 | 1011.8 |
| 20260503175409 | 57 | 246 | 3.0 | 9.0 | 0.00 | 0.00 | 0.00 | 35 | 1011.7 |
| 20260503174904 | 58 | 154 | 1.0 | 16.0 | 0.00 | 0.00 | 0.00 | 36 | 1011.8 |
| 20260503174402 | 57 | 199 | 3.0 | 17.0 | 0.00 | 0.00 | 0.00 | 35 | 1011.8 |
| 20260503173857 | 56 | 112 | 0.0 | 17.0 | 0.00 | 0.00 | 0.00 | 37 | 1012.0 |
| 20260503173354 | 56 | 32 | 3.0 | 11.0 | 0.00 | 0.00 | 0.00 | 38 | 1012.1 |
| 20260503172850 | 57 | 16 | 2.0 | 6.0 | 0.00 | 0.00 | 0.00 | 38 | 1012.2 |
| 20260503172348 | 57 | 205 | 6.0 | 8.0 | 0.00 | 0.00 | 0.00 | 35 | 1012.0 |
| 20260503171844 | 57 | 217 | 9.0 | 16.0 | 0.00 | 0.00 | 0.00 | 34 | 1012.0 |
| 20260503171341 | 56 | 29 | 5.0 | 14.0 | 0.00 | 0.00 | 0.00 | 38 | 1012.0 |
| 20260503170838 | 56 | 90 | 4.0 | 18.0 | 0.00 | 0.00 | 0.00 | 36 | 1012.4 |
| 20260503170334 | 55 | 199 | 4.0 | 19.0 | 0.00 | 0.00 | 0.00 | 36 | 1012.3 |